Погода в Кавказском

Россия / Красноярский край     53°57′57″N   91°55′43″E
темп.,
°C
ветер,
м/с
пор.,
м/с
влажн.,
%
обл.,
%
осадки,
мм/ч
давл.,
гПа
погр.,
м
28 сентября, вт
вт2801:00+2зсз019199 0.0 102429
04:00+2всв1293100 0.1 102380
07:00+1всв2392100 0.1 1022209
10:00+4всв227012 0.0 1022690
13:00+6ссв115684 0.0 10211232
16:00+7ссз215259 0.0 10201250
19:00+3ссз33715 0.0 102143
22:00+1с11730 0.0 102210
29 сентября, ср
ср2901:000св11770 0.0 102110
04:00−1в11812 0.0 102110
07:00−1в218514 0.0 102113
10:00+4в23635 0.0 1019440
13:00+8вюв344643 0.0 1016868
16:00+10вюв344058 0.0 1015936
19:00+6юв115199 0.0 101510
22:00+6ююв1151100 0.0 101510
30 сентября, чт
чт3001:00+6ююв1156100 0.0 101511
04:00+4юв1166100 0.0 101510
07:00+3юв2276100 0.0 101515
10:00+7ююв237193 0.0 1015336
13:00+11ююв3564100 0.0 1013938
16:00+12ю246290 0.1 1013788
19:00+9ююв118143 0.8 101317
22:00+7ююз2484100 0.0 1013120
1 октября, пт
пт101:00+6юз1284100 0.3 101251
04:00+6юз2592100 0.6 1012274
07:00+5з129197 0.8 101268
10:00+6всв226655 0.1 1010766
13:00+9вюв1259100 0.1 10061051
16:00+9св1162100 0.1 10051022
19:00+5сз5591100 2.1 1007752
22:00+4сз5992100 2.6 1011629
2 октября, сб
сб201:00+3сз4890100 2.6 1014489
04:00+2юз3595100 0.3 1016277
07:00+2ююз2492100 0.4 1018295
10:00+4зюз566963 0.0 1018651
13:00+7зюз554975 0.1 10181621
16:00+7зюз5648100 0.1 10181636
19:00+4зюз226199 0.1 102127
22:00+2юз356889 0.1 102398